FLOCK 4V-4 (46314 NORAD) Tracking and Keplerian Element Data

This shows tracking and keplerian element data for the satellite.

Feedback or suggestion? Click here.




ElementValue
Catalog46314
NameFLOCK 4V-4
Epoch Orbit310
Epoch Day267.80792684
Epoch Year2020
RAAN340.5833
Inclination97.5178
Eccentricity0.0003318
Argument of Perigee170.0281
Mean Anonmoly190.1016
Mean Motion15.10869787
Decay Rate3.23E-06
L11 46314U 20061AU 20267.80792684 .00000323 00000-0 23199-4 0 9994
L22 46314 97.5178 340.5833 0003318 170.0281 190.1016 15.10869787 3101

Live tracking and technical data element details for FLOCK 4V-4 (NORAD 46314). FLOCK 4V-4 can be tracked NOW for your location showing map with azimuth and elevation plus other details from your city location.

Track the satellite on the map from your city or location and see movement details for azimuth, elevation, latitude, longitude, range, height, and movement on the map or in text.







IsCatalogInMostPopularTable: catalog: 46314, numindb: 2
Update: records affected: 1



GetName: 46314 FLOCK 4V-4

Hit Count: updated at: Thu, 24 Sep 2020 17:54:24 GMT